Temp
72 71 68 69 69 72 72 72 73 73 73 74 74 73 73 74 74 73 74 75 73 74 75 74 74 75 76 76 75 75 74 72 71 76 74 78 79 80 81 81 82 82 80
70 70 71 71 72 73 73 73 73 73 74 74 74 74 73 73 74 74 74 76 73 73 74 73 74 77 74 73 73 73 74 74 72 72 74 78 78 79 80 79 82 85 82
68 69 69 69 68 69 71 74 74 73 73 73 74 74 74 74 73 73 74 75 74 75 75 74 75 74 74 73 72 72 72 73 73 72 74 75 75 77 77 78 79 79 80
71 71 72 70 70 72 71 71 74 74 73 73 72 73 75 75 75 74 73 74 74 75 75 75 75 74 74 74 74 73 72 72 72 71 73 74 74 76 75 75 75 76 77
71 71 70 71 72 72 71 72 73 74 75 75 73 73 74 73 76 73 74 74 73 73 75 75 76 76 74 73 73 74 73 72 71 71 71 72 73 72 73 73 72 74 75
67 67 68 70 70 70 69 69 70 71 73 73 71 72 72 73 66 67 69 72 73 73 72 73 75 73 73 70 70 71 73 72 71 71 72 72 73 72 72 71 71 71 71
64 65 66 67 68 69 69 68 68 69 70 70 68 71 66 65 64 65 67 67 70 72 73 73 72 78 72 75 70 69 69 69 73 74 73 72 73 72 72 72 71 72 72
63 63 64 64 65 67 68 67 68 68 69 70 71 67 66 66 64 65 66 67 67 69 72 73 72 74 74 74 74 73 74 73 71 72 75 75 74 74 73 74 74 73 73
63 63 63 64 64 66 66 67 67 67 67 69 70 68 67 67 63 63 64 65 66 67 70 73 73 73 69 66 74 73 73 73 67 66 68 67 66 66 70 73 69 69 69
63 64 64 64 63 64 65 66 66 66 66 67 68 69 67 67 61 61 63 64 64 65 67 70 66 72 65 63 71 73 71 73 72 69 69 66 65 68 65 74 74 71 69
66 64 63 63 63 64 64 65 65 65 64 64 65 68 68 66 65 60 60 64 64 63 65 66 69 64 61 60 62 73 73 74 71 73 72 71 71 71 72 72 74 74 71
63 63 63 63 64 66 63 63 64 64 63 63 63 63 67 68 62 60 58 60 63 64 65 68 69 62 59 58 60 64 62 65 73 71 71 70 70 69 69 70 70 70 71
61 61 62 63 64 64 62 62 62 63 62 63 63 63 64 66 67 60 59 59 59 62 66 67 64 60 58 59 59 60 60 67 70 69 70 71 71 72 70 69 68 68 69
60 61 62 62 62 64 64 62 61 61 62 62 62 62 63 63 64 65 64 62 60 60 64 65 64 62 61 64 64 62 65 67 69 70 71 72 71 68 69 69 67 66 67
60 61 62 62 62 62 62 61 61 62 62 63 64 64 64 64 64 61 60 63 64 62 62 64 63 63 63 65 66 68 66 67 67 70 71 70 69 67 67 67 67 66 68
60 61 61 61 62 62 60 60 53 53 51 50 50 55 65 58 53 52 50 51 52 52 59 62 62 62 63 64 65 66 67 66 67 70 69 69 68 67 66 65 67 69 68
58 59 60 58 60 60 59 59 58 58 49 47 47 49 48 53 50 48 47 48 47 50 60 62 63 64 64 65 65 66 66 68 69 69 69 69 68 67 65 65 67 67 67
58 56 58 60 61 61 60 60 60 59 59 60 52 50 47 46 45 46 44 46 54 52 61 61 62 64 65 67 68 68 67 67 67 68 68 68 67 68 66 66 66 66 67
58 58 59 60 60 60 62 60 60 60 60 60 61 53 50 46 44 44 43 57 59 60 60 61 63 65 66 67 68 68 68 67 66 67 67 67 67 67 67 68 69 61 63
58 58 58 59 59 60 60 60 60 59 60 60 60 60 61 54 56 55 54 56 58 61 64 64 64 64 65 66 68 68 67 65 65 66 67 68 68 69 68 67 69 69 68
54 55 57 57 58 59 60 59 60 60 59 60 62 62 53 59 61 60 60 58 59 61 62 64 65 64 65 65 67 68 67 66 66 67 66 66 67 66 68 69 71 72 72
53 54 55 55 57 59 59 60 61 60 60 61 61 61 48 56 62 63 63 62 63 63 64 64 66 66 67 67 68 68 69 67 66 66 66 67 67 69 70 71 71 71 71
53 53 54 55 57 57 59 59 60 60 61 62 62 61 60 58 59 61 62 63 64 64 65 65 66 66 67 68 69 68 68 68 68 68 66 66 69 70 70 70 71 69 69
53 54 55 56 57 58 59 59 60 56 61 62 62 62 62 62 61 61 62 65 64 65 67 65 66 67 67 68 68 69 70 69 71 71 72 71 71 65 71 72 73 73 73
51 51 52 55 57 58 59 59 60 60 62 64 64 65 64 64 64 64 64 64 65 65 66 66 67 69 68 67 68 69 60 50 67 61 74 73 72 71 72 72 71 71 71
49 49 49 50 51 53 55 56 57 58 60 62 62 62 63 64 65 65 64 65 66 66 66 66 67 68 68 67 67 59 44 44 57 51 71 73 72 70 71 71 71 70 66
MSLP
1012.80 1013.48 1013.07 1012.18 1012.16 1013.34 1014.34 1014.81 1014.31 1014.24 1014.14 1014.32 1014.51 1014.71 1014.74 1014.85 1015.16 1015.63 1015.87 1016.19 1016.45 1016.55 1016.67 1016.84 1017.07 1017.26 1017.36 1017.54 1017.88 1018.10 1018.20 1018.40 1018.45 1018.03 1017.82 1017.13 1016.72 1016.44 1016.28 1016.44 1016.48 1016.28 1016.37
1013.78 1014.11 1013.42 1013.17 1013.32 1014.04 1013.82 1013.82 1013.75 1013.60 1013.46 1013.39 1013.43 1013.89 1014.18 1014.27 1014.43 1014.83 1015.19 1015.46 1015.76 1016.00 1016.11 1016.31 1016.42 1016.74 1017.02 1017.20 1017.42 1017.66 1017.79 1017.91 1018.04 1017.84 1017.57 1017.12 1016.89 1016.55 1016.33 1016.37 1016.25 1016.00 1015.96
1014.34 1014.17 1014.01 1013.82 1013.56 1013.66 1013.38 1013.02 1012.45 1012.51 1012.71 1012.54 1012.67 1012.69 1012.82 1013.15 1013.57 1013.71 1014.00 1014.47 1014.94 1015.11 1015.39 1015.63 1015.73 1016.10 1016.34 1016.67 1016.98 1017.20 1017.34 1017.54 1017.61 1017.58 1017.27 1017.17 1016.92 1016.63 1016.56 1016.40 1016.19 1016.08 1016.02
1013.52 1013.44 1012.94 1012.80 1012.69 1012.42 1012.07 1012.03 1011.87 1011.84 1011.92 1012.02 1011.88 1011.55 1011.96 1012.22 1012.61 1013.17 1013.44 1013.50 1013.89 1014.23 1014.48 1014.68 1014.83 1015.18 1015.53 1015.83 1016.15 1016.32 1016.61 1016.80 1017.03 1017.09 1016.92 1016.79 1016.71 1016.50 1016.67 1016.56 1016.24 1016.17 1015.99
1013.09 1013.08 1013.03 1012.83 1012.58 1012.30 1011.90 1011.64 1011.34 1011.25 1011.12 1011.10 1011.07 1011.09 1011.64 1011.70 1011.69 1012.28 1012.83 1013.15 1013.26 1013.40 1013.58 1013.80 1013.87 1013.95 1014.25 1014.62 1015.07 1015.28 1015.73 1016.11 1016.39 1016.61 1016.64 1016.49 1016.35 1016.41 1016.39 1016.33 1016.32 1016.10 1015.85
1012.91 1013.07 1013.09 1012.87 1012.66 1012.40 1012.10 1011.74 1011.20 1010.97 1010.66 1010.58 1010.87 1011.23 1011.47 1012.18 1012.65 1013.27 1013.37 1013.09 1012.76 1012.78 1012.82 1012.96 1013.00 1013.19 1013.46 1013.74 1013.94 1014.19 1014.53 1015.12 1015.45 1015.70 1015.71 1015.77 1015.65 1015.75 1015.74 1015.89 1016.05 1015.90 1015.66
1012.68 1012.42 1012.39 1012.34 1012.19 1011.94 1011.77 1011.56 1011.08 1010.68 1010.44 1010.35 1010.54 1010.47 1010.56 1010.80 1012.42 1013.30 1013.45 1013.59 1013.30 1012.85 1012.37 1012.40 1012.55 1012.54 1012.72 1013.13 1013.40 1013.47 1013.68 1013.82 1014.12 1014.64 1014.84 1014.89 1015.02 1014.98 1015.24 1015.22 1015.26 1015.45 1015.30
1012.44 1012.10 1011.84 1011.77 1011.65 1011.38 1011.17 1010.95 1010.58 1010.38 1010.06 1009.87 1009.66 1009.54 1009.35 1008.69 1010.81 1012.29 1012.82 1013.01 1012.74 1012.58 1011.99 1011.91 1011.89 1011.89 1011.95 1012.25 1012.59 1012.86 1012.90 1013.07 1013.22 1013.58 1013.70 1013.69 1013.81 1014.05 1014.36 1014.42 1014.60 1014.82 1014.96
1012.43 1011.85 1011.38 1011.22 1011.00 1010.85 1010.64 1010.39 1010.19 1010.01 1009.79 1009.55 1009.18 1009.17 1009.27 1009.47 1009.43 1010.57 1011.17 1011.82 1011.80 1011.63 1011.31 1010.98 1010.93 1010.98 1011.10 1011.38 1011.74 1011.96 1012.03 1012.14 1012.18 1012.36 1012.44 1012.59 1012.93 1013.24 1013.52 1014.01 1014.26 1014.58 1014.59
1011.72 1011.34 1011.09 1010.87 1010.67 1010.43 1010.29 1009.92 1009.66 1009.45 1009.48 1009.38 1008.97 1009.03 1008.83 1008.78 1009.83 1009.61 1009.78 1009.83 1009.57 1010.22 1010.44 1010.36 1010.11 1010.04 1010.19 1010.46 1010.88 1010.97 1011.12 1011.18 1011.70 1012.10 1012.32 1012.49 1012.57 1012.71 1013.17 1012.95 1013.30 1013.66 1014.16
1011.09 1010.83 1010.66 1010.46 1010.23 1010.04 1009.82 1009.65 1009.20 1008.93 1008.89 1009.04 1008.70 1008.53 1008.21 1008.26 1008.47 1008.78 1008.92 1008.80 1008.34 1008.28 1009.05 1008.85 1009.36 1008.99 1009.32 1009.71 1009.72 1009.54 1009.37 1009.94 1010.54 1010.76 1011.19 1011.61 1011.85 1011.99 1012.38 1012.46 1012.51 1012.82 1013.31
1010.70 1010.49 1010.17 1009.84 1009.59 1009.20 1009.24 1009.22 1008.98 1008.53 1008.45 1008.50 1008.46 1008.31 1008.40 1008.10 1008.18 1008.04 1008.25 1008.12 1008.07 1008.63 1007.73 1008.45 1007.88 1007.83 1008.27 1008.73 1009.25 1008.82 1008.69 1009.08 1009.46 1009.93 1010.20 1010.61 1011.13 1011.38 1011.54 1011.79 1012.06 1012.31 1012.54
1010.08 1009.93 1009.62 1009.17 1008.84 1008.60 1008.56 1008.42 1008.50 1008.10 1007.69 1007.47 1007.38 1007.28 1007.38 1007.50 1007.08 1006.86 1006.83 1006.83 1007.30 1007.42 1007.12 1006.81 1006.76 1006.82 1006.94 1007.80 1007.86 1008.15 1008.57 1009.00 1008.83 1009.11 1009.10 1009.36 1009.75 1010.02 1010.76 1011.55 1011.91 1012.23 1012.58
1009.44 1009.15 1008.92 1008.54 1007.87 1007.64 1007.79 1007.71 1007.62 1007.53 1007.15 1006.68 1006.28 1005.77 1005.76 1006.02 1006.08 1005.82 1005.78 1006.20 1006.13 1006.59 1006.62 1006.63 1006.80 1006.77 1006.95 1007.24 1007.52 1007.49 1007.37 1008.01 1007.89 1007.75 1007.91 1008.20 1008.91 1009.78 1010.25 1010.93 1011.59 1011.94 1012.23
1008.67 1008.36 1007.97 1007.69 1007.33 1006.71 1006.49 1006.62 1006.50 1006.15 1005.87 1005.71 1005.37 1005.23 1004.92 1004.91 1004.98 1004.99 1004.93 1005.04 1005.40 1005.46 1005.93 1006.34 1006.52 1006.45 1006.65 1006.63 1006.68 1006.82 1006.76 1006.73 1007.08 1006.79 1007.05 1007.47 1008.31 1008.93 1009.60 1010.32 1010.80 1011.22 1011.43
1008.09 1007.72 1007.37 1007.00 1006.59 1006.25 1005.89 1005.55 1005.65 1005.44 1005.04 1004.86 1004.55 1004.85 1004.21 1004.20 1004.31 1004.54 1004.74 1004.68 1004.70 1005.05 1005.89 1006.05 1005.89 1005.74 1005.97 1006.22 1006.06 1005.93 1005.69 1005.54 1005.80 1006.13 1006.16 1006.50 1007.20 1007.80 1008.67 1009.64 1009.98 1010.28 1010.66
1007.73 1007.17 1006.71 1006.33 1005.96 1005.61 1005.29 1005.01 1004.74 1004.51 1004.27 1004.08 1003.91 1003.86 1004.23 1004.11 1003.91 1003.98 1004.14 1004.30 1004.62 1005.29 1005.27 1005.17 1004.94 1005.17 1005.36 1005.32 1005.14 1004.98 1004.79 1005.01 1004.63 1004.90 1005.40 1005.62 1006.06 1006.75 1007.56 1008.42 1009.02 1009.53 1010.13
1007.04 1006.49 1005.93 1005.27 1004.82 1004.45 1004.33 1004.08 1003.97 1003.95 1003.86 1003.26 1003.01 1003.31 1003.34 1003.40 1003.61 1003.62 1003.90 1004.51 1004.92 1004.79 1004.40 1004.22 1004.32 1004.37 1004.14 1004.05 1004.09 1004.02 1004.06 1004.05 1004.48 1004.67 1004.45 1004.85 1005.45 1005.87 1006.66 1007.50 1008.16 1008.75 1009.43
1006.39 1005.71 1005.09 1004.34 1003.57 1003.16 1003.00 1002.91 1002.85 1002.87 1002.78 1002.70 1002.37 1002.33 1002.35 1002.65 1003.00 1003.36 1003.82 1003.72 1003.44 1003.05 1003.00 1002.99 1003.22 1003.14 1002.98 1003.08 1003.10 1003.06 1002.94 1003.30 1003.33 1003.82 1004.32 1003.86 1004.74 1005.10 1005.74 1006.36 1007.09 1007.76 1008.57
1005.74 1005.17 1004.61 1003.69 1002.72 1002.06 1001.75 1001.60 1001.44 1001.37 1001.36 1001.29 1001.23 1001.15 1001.39 1002.00 1002.36 1002.45 1002.68 1002.56 1002.28 1001.91 1001.93 1001.87 1001.89 1001.87 1002.05 1002.07 1002.04 1001.89 1002.17 1002.39 1002.77 1003.24 1003.50 1003.45 1003.78 1004.50 1004.84 1005.64 1006.40 1007.04 1007.73
1005.31 1004.48 1003.80 1002.98 1002.04 1001.33 1000.75 1000.65 1000.48 1000.41 1000.27 1000.17 1000.02 1000.04 1000.19 1000.73 1000.75 1000.83 1000.71 1000.93 1000.80 1000.74 1000.73 1000.78 1000.76 1000.79 1000.88 1000.78 1000.81 1001.06 1001.35 1001.61 1001.90 1002.50 1002.93 1002.89 1003.00 1003.49 1004.03 1004.69 1005.58 1006.10 1006.62
1004.77 1003.95 1003.15 1002.35 1001.50 1000.53 1000.05 999.76 999.44 999.37 999.36 999.33 999.26 999.21 999.21 999.73 999.59 999.54 999.50 999.45 999.28 999.34 999.37 999.42 999.37 999.54 999.60 999.55 999.62 999.73 1000.11 1000.46 1000.84 1001.41 1001.89 1001.87 1002.12 1002.54 1003.10 1003.80 1004.94 1005.44 1006.05
1004.04 1003.16 1002.29 1001.41 1000.56 999.90 999.38 999.09 998.85 998.72 998.64 998.59 998.57 998.46 998.54 998.57 998.60 998.57 998.41 998.21 998.23 998.43 998.43 998.36 998.38 998.30 998.36 998.63 998.61 998.60 998.93 998.90 999.45 1000.31 1000.63 1000.45 1001.03 1001.41 1002.36 1003.79 1004.43 1005.04 1005.65
1003.35 1002.53 1001.60 1000.49 999.73 999.20 998.84 998.45 998.25 998.12 997.91 997.79 997.66 997.56 997.55 997.47 997.38 997.22 997.15 996.97 997.19 997.11 996.97 997.22 997.37 997.30 997.46 997.69 997.69 997.84 997.83 998.25 998.65 999.19 999.13 999.25 999.88 1001.26 1002.55 1003.36 1003.89 1004.49 1005.08
1003.27 1002.48 1001.58 1000.45 999.43 998.75 998.46 998.13 997.76 997.48 997.19 996.94 996.73 996.63 996.54 996.53 996.49 996.40 996.20 996.24 996.07 996.10 996.10 996.26 996.28 996.38 996.66 996.66 996.80 996.71 997.18 997.61 998.25 998.49 998.83 999.28 999.86 1001.03 1002.06 1002.84 1003.38 1003.94 1004.83
1003.46 1002.69 1001.90 1001.09 1000.19 999.43 998.83 998.36 997.86 997.32 996.90 996.52 996.29 996.07 995.75 995.55 995.53 995.38 995.09 995.14 995.36 995.54 995.58 995.42 995.34 995.78 996.08 996.15 996.50 996.70 996.93 997.38 997.77 998.00 998.88 999.58 1000.43 1001.15 1001.83 1002.55 1003.21 1003.91 1004.63
Wind_Speed
7 5 4 8 5 2 10 15 12 11 11 11 10 10 11 11 10 9 10 8 9 8 7 6 7 4 5 4 4 3 4 3 3 2 2 2 2 2 1 2 4 5 5
6 4 4 6 9 8 10 14 14 13 12 13 13 12 11 11 11 12 12 11 10 10 10 8 9 6 7 5 4 6 6 5 4 5 2 2 4 2 3 4 3 5 6
8 6 7 9 7 9 9 11 10 12 13 12 12 13 13 13 11 12 12 12 11 12 12 11 11 8 8 5 6 5 4 4 4 4 4 2 2 1 2 3 3 2 3
3 4 1 5 6 7 7 8 7 8 10 12 13 14 13 13 12 11 11 11 11 11 11 12 12 12 11 9 8 9 7 5 5 5 5 4 3 1 2 3 3 1 3
2 4 5 5 5 4 4 5 5 6 9 12 13 10 10 10 9 11 11 12 12 12 11 12 13 14 16 13 7 7 7 6 5 5 5 3 3 3 4 1 4 3 3
5 5 4 5 4 5 5 6 5 4 6 4 3 4 6 3 12 14 11 8 11 12 12 12 12 14 14 16 17 13 11 8 8 5 6 7 8 4 4 4 3 2 3
7 6 6 5 5 6 5 6 6 5 4 4 7 8 15 11 10 12 12 8 10 10 11 11 10 10 11 10 13 15 14 15 14 9 9 8 6 7 5 5 6 5 5
7 7 7 5 6 6 5 6 6 4 5 3 2 8 9 9 10 5 7 9 7 10 11 11 10 11 10 12 11 11 12 11 12 9 11 10 8 6 7 3 3 4 3
8 8 7 6 7 6 6 6 6 4 5 3 4 6 8 9 18 21 15 5 11 11 10 10 11 11 12 16 12 12 11 10 8 13 14 10 10 12 8 5 5 3 4
8 9 7 7 7 8 6 7 4 4 5 4 5 6 12 10 18 17 15 10 9 8 10 11 13 15 13 17 14 12 12 11 9 6 5 6 9 9 11 10 6 6 4
11 6 7 8 9 8 9 6 8 8 5 6 6 5 8 10 12 19 21 11 11 8 7 9 11 13 18 17 19 13 13 10 10 8 7 6 6 7 7 9 9 7 6
7 9 10 9 8 8 7 6 8 8 7 7 7 5 7 9 14 15 20 22 12 9 10 10 11 16 16 18 13 16 14 11 6 7 6 6 7 7 6 7 7 7 4
6 9 9 10 10 9 7 7 6 8 8 8 8 8 6 8 10 16 17 19 20 13 9 14 16 17 16 15 18 17 14 8 8 8 8 7 7 5 6 5 5 5 5
9 9 8 9 12 11 7 6 6 7 8 8 9 9 6 5 7 8 9 10 18 12 15 10 10 10 10 9 7 10 9 10 11 10 9 7 6 6 7 7 6 7 4
9 9 11 9 10 11 9 7 7 8 9 8 9 9 8 6 8 10 10 9 9 11 8 8 8 9 11 11 11 11 8 9 12 9 8 8 7 6 6 7 5 6 5
10 9 9 9 9 9 9 8 12 16 14 16 16 8 7 10 7 16 18 17 14 11 4 7 8 6 7 9 10 12 11 12 11 10 9 9 9 8 8 7 6 7 8
10 12 9 10 9 10 9 10 9 7 15 14 16 16 15 15 10 12 15 17 10 10 6 8 6 6 7 6 7 9 11 11 12 11 10 10 10 9 11 9 8 8 7
12 16 12 11 10 9 10 10 9 9 7 8 11 14 14 17 15 14 8 5 6 5 9 8 8 8 7 7 8 9 8 7 9 10 10 9 9 10 11 10 10 9 9
11 9 10 11 11 11 10 9 9 9 9 9 7 4 9 13 11 9 11 6 8 9 10 10 10 9 8 8 9 9 11 9 9 9 10 10 10 10 10 9 9 11 10
10 18 15 12 11 10 9 9 9 10 9 8 7 8 3 4 4 6 8 8 8 9 9 10 9 8 9 10 9 8 6 7 8 9 10 10 10 9 10 10 9 10 9
10 11 17 12 11 10 9 8 10 9 9 8 9 8 11 9 9 8 8 8 10 11 11 11 10 10 10 10 10 10 10 8 9 9 9 10 10 10 9 9 10 9 9
10 10 10 10 11 9 9 9 10 9 9 8 8 8 11 7 8 8 9 9 9 10 9 9 11 10 9 10 11 10 12 10 10 10 10 11 10 9 10 10 10 9 9
10 12 11 11 10 10 8 8 7 7 8 9 7 7 6 6 7 9 9 9 8 10 9 9 10 9 8 9 10 10 11 11 11 11 12 10 10 9 9 10 9 8 8
10 11 11 11 9 7 7 7 7 9 9 8 8 8 8 7 8 10 9 7 8 9 8 8 9 10 8 9 9 8 7 7 8 10 13 11 10 11 9 10 10 10 9
9 9 9 10 7 6 5 7 6 6 8 8 8 9 8 8 8 9 8 7 7 7 8 8 7 10 11 11 9 9 9 13 11 11 9 10 12 14 11 10 9 8 8
9 9 8 8 7 6 6 6 7 7 8 8 7 7 8 8 8 8 8 7 6 7 7 5 5 8 9 10 13 15 12 12 10 12 9 9 10 8 8 10 12 7 6
Wind_Direction
113 178 242 278 317 264 261 258 240 234 213 215 228 216 214 213 216 214 219 210 215 226 224 220 232 210 236 221 206 209 213 179 216 271 254 275 279 303 305 212 249 259 248
88 197 199 264 261 260 239 244 247 238 222 218 211 219 222 217 211 215 219 218 211 220 225 218 230 223 223 216 211 222 226 211 204 237 253 267 246 266 281 290 261 262 270
181 219 196 226 244 249 250 256 233 231 238 220 220 215 214 217 211 215 214 217 210 213 217 218 225 214 228 204 206 209 211 218 214 221 241 235 264 255 301 266 276 283 255
189 194 293 286 279 296 300 286 268 238 237 234 224 225 224 215 209 211 215 215 218 217 216 217 215 211 219 214 211 213 210 207 218 227 235 241 238 262 254 268 281 264 280
346 326 286 279 276 294 291 294 298 290 260 246 236 227 238 232 216 216 209 216 220 223 221 222 221 215 211 204 198 213 195 210 208 218 235 237 238 222 216 216 241 267 273
307 278 273 279 257 260 274 282 294 291 285 230 222 240 216 268 15 22 339 264 225 222 225 225 229 212 214 205 205 203 193 208 217 207 232 235 235 216 195 211 237 245 267
287 285 285 282 274 269 252 266 267 274 272 257 216 175 115 109 45 61 24 354 316 271 248 230 222 225 213 220 223 220 212 208 214 210 229 225 234 203 194 214 213 219 236
292 286 288 285 280 278 268 269 281 271 277 309 173 152 150 137 140 317 270 271 289 292 268 246 228 223 205 207 216 221 225 220 219 215 227 232 224 184 197 200 221 221 235
273 282 281 285 287 282 274 265 262 264 276 217 232 211 221 208 189 189 196 264 267 259 270 248 232 226 218 204 215 220 226 229 213 210 215 217 204 190 188 183 218 202 252
248 249 271 281 275 279 274 285 258 248 261 271 236 187 215 212 200 187 187 201 221 258 244 261 239 239 220 208 210 215 225 223 200 190 210 217 208 216 196 201 189 206 212
271 273 266 269 265 261 265 251 267 260 255 262 257 217 217 209 200 208 202 203 219 215 233 253 249 234 230 220 211 214 217 203 206 204 209 205 193 193 198 204 206 204 203
256 272 277 274 267 273 249 252 252 251 249 250 255 226 210 220 222 221 205 210 215 247 215 215 235 225 222 226 221 232 211 196 198 192 195 200 205 202 200 196 193 201 207
253 260 265 270 273 264 246 259 248 241 242 243 245 243 207 206 235 227 219 221 227 231 230 239 228 210 217 225 219 218 218 221 206 202 206 205 199 191 158 167 178 179 180
262 265 263 267 277 271 248 224 229 235 238 242 243 251 239 204 219 228 228 236 239 231 233 241 245 239 251 254 248 224 203 212 212 206 203 195 156 158 174 168 180 172 171
271 274 278 273 272 276 268 235 237 237 230 241 239 239 239 227 219 211 215 215 222 225 216 236 244 239 239 236 232 235 217 204 216 205 190 175 179 172 175 176 175 160 177
282 283 274 275 271 267 270 273 229 240 240 237 249 240 261 248 218 206 211 219 207 172 178 210 221 224 236 238 237 234 217 202 210 209 192 180 181 177 169 176 173 180 187
277 281 276 267 266 270 264 259 265 255 248 247 241 241 231 247 251 221 226 227 212 145 210 212 218 216 221 234 234 227 229 233 210 200 195 187 179 180 168 175 176 180 196
272 264 266 267 267 263 264 259 256 253 255 270 233 226 227 231 233 243 207 175 213 212 216 222 230 230 219 221 241 242 226 209 215 217 189 180 179 174 175 174 177 181 196
288 286 290 281 267 258 258 253 247 242 242 242 257 228 221 228 218 222 174 214 211 214 208 219 230 234 229 232 231 234 224 211 199 198 204 176 177 173 171 168 175 183 180
298 291 289 286 275 265 253 248 246 242 244 241 237 243 203 139 203 204 201 211 222 225 223 228 230 232 237 235 238 219 216 187 188 197 197 187 170 175 162 162 176 177 187
296 293 292 288 279 271 257 252 248 243 242 243 244 238 216 205 225 224 224 210 221 226 229 235 241 237 226 220 225 216 202 195 187 190 197 185 164 166 158 168 176 185 179
294 291 289 286 286 264 253 248 246 244 240 242 246 248 230 223 239 234 227 224 225 226 227 229 232 225 217 219 222 213 207 189 183 187 188 179 164 162 166 166 181 181 175
291 288 284 279 274 273 259 246 243 239 242 246 245 248 232 223 228 237 233 228 223 221 216 220 232 237 233 226 223 202 196 186 182 186 183 160 160 153 149 173 175 167 174
303 299 295 283 273 269 266 249 237 236 241 245 244 248 250 230 231 239 236 226 222 221 215 212 218 225 237 227 216 207 197 186 175 189 166 150 145 145 163 178 180 184 179
315 316 315 336 332 320 297 270 263 254 256 257 259 254 242 243 237 228 230 224 219 227 224 216 213 219 221 215 214 201 181 171 174 162 160 153 152 161 171 178 171 170 167
325 329 325 324 326 342 337 336 322 303 287 278 264 250 247 244 230 227 216 201 207 223 220 228 239 216 206 200 207 194 172 172 162 151 146 150 154 157 167 170 166 159 147